Regional Weather Roundup
Issued by NWS Goodland, KS

Home | Current Version | Previous Version | Text Only | Print | Product List | Glossary On
Versions: 1 2 3 4 5 6 7 8 9 10 11 12 13 14 15 16 17 18 19 20 21 22 23 24 25 26 27 28 29 30 31 32 33 34 35 36 37 38 39 40 41 42 43 44 45 46 47 48 49 50
000
ASUS43 KGLD 281408
RWRGLD

GOODLAND FORECAST AREA HOURLY WEATHER ROUNDUP
NATIONAL WEATHER SERVICE GOODLAND KS
800 AM MDT SAT MAR 28 2015

...OFFICIAL OBSERVATIONS...

CITY           SKY/WX    TMP DP  RH WIND       PRES   REMARKS
GOODLAND KS    SUNNY     48  36  63 W7        30.04R
HILL CITY KS   SUNNY     41  31  67 NE5       30.04R
IMPERIAL NEB     N/A     42  31  64 W6        30.01S
MCCOOK NEB     SUNNY     39  33  79 CALM      30.02R
AKRON CO       SUNNY     50  32  50 W15       30.05R
BURLINGTON CO  SUNNY     46  34  62 W8        30.05R
LIMON CO       SUNNY     47  32  56 N3        30.11R
$$

...UNOFFICIAL OBSERVATIONS...

CITY           SKY/WX    TMP DP  RH WIND       PRES   REMARKS
COLBY KS       SUNNY     48  39  71 W6        30.02S
GOVE KS          N/A     44  32  63 MISG        N/A
LENORA KS        N/A     39  32  76 MISG        N/A
NORTON KS      SUNNY     39  28  65 E5        30.02S
SHARON SPRINGS   N/A     48  38  69 CALM        N/A
TRIBUNE KS     SUNNY     52  41  66 W6        30.06R
KIT CARSON CO    N/A     51  36  56 MISG        N/A
YUMA CO          N/A     46  36  67 W9          N/A
$$


USA.gov is the U.S. government's official web portal to all federal, state and local government web resources and services.